Погода в Янтарном

Россия / Калининградская область     54°51′59″N   19°56′18″E
темп.,
°C
ветер,
м/с
пор.,
м/с
влажн.,
%
обл.,
%
осадки,
мм/ч
давл.,
гПа
погр.,
м
30 ноября, вт
вт3023:00+3ссз91277100 0.4 9961013
02:00+4ссз11136499 1.1 9961201
05:00+3сз91262100 0.2 9971040
08:00+2зсз796263 0.3 996771
11:00+2зюз7864100 0.1 994815
14:00+2юз6676100 0.3 9911010
17:000вюв5698100 1.0 989321
20:000всв459690 1.4 990285
1 декабря, ср
ср123:000ссв47766 0.0 993280
02:00+1ссз58635 0.0 997576
05:00+1сз5863100 0.0 998605
08:00+1зсз246591 0.0 998483
11:00+2ююз5665100 0.0 998508
14:00+2ю7973100 0.0 995670
17:000ююв91498100 0.8 990634
20:00+1ю915100100 6.9 985673
2 декабря, чт
чт223:00+6юз111694100 4.4 982827
02:00+6ююз121986100 4.8 9801316
05:00+5юз151988100 0.4 9791184
08:00+4юз172187100 0.8 9791309
11:00+4з16227895 0.3 9831631
14:00+4зсз131774100 0.8 9881563
17:00+4зсз111468100 0.6 9921249
20:00+3з8117199 1.1 9951077
3 декабря, пт
пт323:00+2зсз468058 1.1 997511
02:00+2сз4580100 2.1 998352
05:00+2зсз3482100 2.4 999226
08:00+2зсз3565100 3.1 1000469
11:00+3з576646 0.6 1001607
14:00+3юз897298 1.0 1001990
17:00+1ююз81074100 0.1 1001740
20:00+3зюз91292100 2.3 1000910
4 декабря, сб
сб423:00+3зюз9128363 0.7 1001676
02:00+3зюз91196100 1.2 1001669
05:00+3зюз91198100 1.0 1002823
08:00+3зюз81095100 1.9 1002750
11:00+2юз678478 0.3 1003668
14:00+2ю4679100 0.3 1003486
17:00+1юв5783100 0.0 1003323
20:00+1юв6982100 0.0 1002363